| time (UTC) | temp C | wind direction | speed KPH | gust KPH | rain 1hr cm | rain 24hr cm | rain mn cm | humidity % | barometer mb |
| 20260504050515 | 6 | 0.0 | 0.0 | 0.00 | 0.00 | 0.00 | 89 | 1015.0 | |
| 20260504045516 | 6 | 0.0 | 0.0 | 0.00 | 0.00 | 0.00 | 86 | 1015.1 | |
| 20260504044515 | 7 | 0.0 | 0.0 | 0.00 | 0.00 | 0.00 | 85 | 1015.0 | |
| 20260504043515 | 7 | 0.0 | 0.0 | 0.00 | 0.00 | 0.00 | 86 | 1014.9 | |
| 20260504042515 | 7 | 0.0 | 0.0 | 0.00 | 0.00 | 0.00 | 85 | 1014.7 | |
| 20260504041535 | 7 | 0.0 | 0.0 | 0.00 | 0.00 | 0.00 | 84 | 1014.7 | |
| 20260504040515 | 7 | 0.0 | 0.0 | 0.00 | 0.00 | 0.00 | 83 | 1014.7 | |
| 20260504035535 | 7 | 0.0 | 0.0 | 0.00 | 0.00 | 0.00 | 82 | 1014.6 | |
| 20260504034515 | 7 | 0.0 | 0.0 | 0.00 | 0.00 | 0.00 | 81 | 1014.4 | |
| 20260504033515 | 7 | 0.0 | 0.0 | 0.00 | 0.00 | 0.00 | 82 | 1014.3 | |
| 20260504032516 | 7 | 0.0 | 0.0 | 0.00 | 0.00 | 0.00 | 80 | 1014.2 | |
| 20260504031515 | 8 | 0.0 | 0.0 | 0.00 | 0.00 | 0.00 | 80 | 1014.3 | |
| 20260504030515 | 8 | 0.0 | 0.0 | 0.00 | 0.00 | 0.00 | 79 | 1014.2 | |
| 20260504025515 | 8 | 0.0 | 0.0 | 0.00 | 0.00 | 0.00 | 77 | 1014.2 | |
| 20260504024515 | 8 | 0.0 | 0.0 | 0.00 | 0.00 | 0.00 | 78 | 1014.2 | |
| 20260504023515 | 8 | 0.0 | 0.0 | 0.00 | 0.00 | 0.00 | 75 | 1014.2 | |
| 20260504022515 | 8 | 0.0 | 0.0 | 0.00 | 0.00 | 0.00 | 75 | 1014.2 | |
| 20260504021515 | 8 | 0.0 | 0.0 | 0.00 | 0.00 | 0.00 | 73 | 1014.2 | |
| 20260504020515 | 9 | 0.0 | 0.0 | 0.00 | 0.00 | 0.00 | 73 | 1014.2 | |
| 20260504015515 | 9 | 0.0 | 0.0 | 0.00 | 0.00 | 0.00 | 70 | 1014.1 | |
| 20260504014515 | 9 | 0.0 | 0.0 | 0.00 | 0.00 | 0.00 | 70 | 1014.0 | |
| 20260504013515 | 10 | 0.0 | 0.0 | 0.00 | 0.00 | 0.00 | 69 | 1014.0 | |
| 20260504012515 | 10 | 0.0 | 0.0 | 0.00 | 0.00 | 0.00 | 67 | 1014.0 | |
| 20260504011515 | 10 | 0.0 | 0.0 | 0.00 | 0.00 | 0.00 | 66 | 1013.8 | |
| 20260504010515 | 10 | 0.0 | 0.0 | 0.00 | 0.00 | 0.00 | 63 | 1013.7 | |
| 20260504005515 | 10 | 0.0 | 0.0 | 0.00 | 0.00 | 0.00 | 62 | 1013.7 | |
| 20260504004536 | 11 | 0.0 | 0.0 | 0.00 | 0.00 | 0.00 | 60 | 1013.6 | |
| 20260504003535 | 11 | 0.0 | 0.0 | 0.00 | 0.00 | 0.00 | 57 | 1013.4 | |
| 20260504002536 | 11 | 0.0 | 0.0 | 0.00 | 0.00 | 0.00 | 57 | 1013.3 | |
| 20260504001515 | 12 | 0.0 | 0.0 | 0.00 | 0.00 | 0.00 | 56 | 1013.3 | |
| 20260504000515 | 12 | 0.0 | 0.0 | 0.00 | 0.00 | 0.00 | 55 | 1013.2 | |
| 20260503235535 | 13 | 0.0 | 0.0 | 0.00 | 0.00 | 0.00 | 53 | 1013.1 | |
| 20260503234515 | 13 | 0.0 | 0.0 | 0.00 | 0.00 | 0.00 | 50 | 1012.8 | |
| 20260503233515 | 14 | 0.0 | 0.0 | 0.00 | 0.00 | 0.00 | 46 | 1012.7 | |
| 20260503232515 | 15 | 234 | 0.0 | 8.0 | 0.00 | 0.00 | 0.00 | 43 | 1012.8 |
| 20260503231515 | 15 | 0.0 | 0.0 | 0.00 | 0.00 | 0.00 | 42 | 1012.9 | |
| 20260503230515 | 15 | 217 | 0.0 | 6.4 | 0.00 | 0.00 | 0.00 | 40 | 1012.9 |
| 20260503225515 | 15 | 221 | 0.0 | 8.0 | 0.00 | 0.00 | 0.00 | 39 | 1012.9 |
| 20260503224636 | 16 | 221 | 3.2 | 16.1 | 0.00 | 0.00 | 0.00 | 38 | 1012.8 |
| 20260503223515 | 16 | 335 | 1.6 | 9.7 | 0.00 | 0.00 | 0.00 | 35 | 1012.8 |
| 20260503222535 | 16 | 254 | 1.6 | 6.4 | 0.00 | 0.00 | 0.00 | 35 | 1012.8 |
| 20260503221515 | 16 | 230 | 3.2 | 9.7 | 0.00 | 0.00 | 0.00 | 36 | 1012.8 |
| 20260503220515 | 16 | 273 | 1.6 | 11.3 | 0.00 | 0.00 | 0.00 | 36 | 1012.8 |
| 20260503215536 | 16 | 357 | 0.0 | 3.2 | 0.00 | 0.00 | 0.00 | 35 | 1012.8 |
| 20260503214515 | 16 | 307 | 1.6 | 9.7 | 0.00 | 0.00 | 0.00 | 37 | 1012.8 |
| 20260503213515 | 16 | 282 | 1.6 | 12.9 | 0.00 | 0.00 | 0.00 | 36 | 1012.8 |
| 20260503212515 | 16 | 301 | 3.2 | 9.7 | 0.00 | 0.00 | 0.00 | 35 | 1012.8 |
| 20260503211515 | 16 | 322 | 1.6 | 8.0 | 0.00 | 0.00 | 0.00 | 36 | 1012.7 |
| 20260503210515 | 16 | 304 | 3.2 | 11.3 | 0.00 | 0.00 | 0.00 | 35 | 1012.8 |
| 20260503205535 | 16 | 333 | 0.0 | 12.9 | 0.00 | 0.00 | 0.00 | 37 | 1012.9 |
| 20260503204515 | 16 | 205 | 3.2 | 11.3 | 0.00 | 0.00 | 0.00 | 38 | 1012.9 |
| 20260503203515 | 16 | 294 | 1.6 | 9.7 | 0.00 | 0.00 | 0.00 | 35 | 1013.0 |
| 20260503202515 | 17 | 330 | 3.2 | 12.9 | 0.00 | 0.00 | 0.00 | 34 | 1013.0 |
| 20260503201515 | 17 | 340 | 3.2 | 14.5 | 0.00 | 0.00 | 0.00 | 35 | 1013.2 |
| 20260503200515 | 17 | 230 | 3.2 | 14.5 | 0.00 | 0.00 | 0.00 | 37 | 1013.3 |
| 20260503195515 | 17 | 274 | 1.6 | 9.7 | 0.00 | 0.00 | 0.00 | 36 | 1013.4 |
| 20260503194515 | 16 | 320 | 4.8 | 14.5 | 0.00 | 0.00 | 0.00 | 36 | 1013.5 |
| 20260503193515 | 15 | 299 | 4.8 | 14.5 | 0.00 | 0.00 | 0.00 | 38 | 1013.6 |
| 20260503192515 | 16 | 274 | 3.2 | 14.5 | 0.00 | 0.00 | 0.00 | 37 | 1013.7 |
| 20260503191516 | 16 | 276 | 4.8 | 16.1 | 0.00 | 0.00 | 0.00 | 38 | 1013.8 |
| 20260503190515 | 16 | 340 | 4.8 | 14.5 | 0.00 | 0.00 | 0.00 | 35 | 1013.9 |
| 20260503185556 | 16 | 228 | 4.8 | 20.9 | 0.00 | 0.00 | 0.00 | 38 | 1013.9 |
| 20260503184515 | 17 | 242 | 4.8 | 19.3 | 0.00 | 0.00 | 0.00 | 37 | 1014.1 |
| 20260503183515 | 16 | 246 | 4.8 | 19.3 | 0.00 | 0.00 | 0.00 | 37 | 1014.3 |
| 20260503182515 | 16 | 40 | 3.2 | 14.5 | 0.00 | 0.00 | 0.00 | 39 | 1014.3 |
| 20260503181515 | 16 | 254 | 4.8 | 12.9 | 0.00 | 0.00 | 0.00 | 37 | 1014.3 |
| 20260503180515 | 16 | 298 | 3.2 | 9.7 | 0.00 | 0.00 | 0.00 | 37 | 1014.4 |
| 20260503175516 | 16 | 312 | 4.8 | 14.5 | 0.00 | 0.00 | 0.00 | 36 | 1014.5 |
| 20260503174515 | 16 | 130 | 4.8 | 11.3 | 0.00 | 0.00 | 0.00 | 39 | 1014.5 |
| 20260503173516 | 16 | 313 | 6.4 | 17.7 | 0.00 | 0.00 | 0.00 | 37 | 1014.5 |
| 20260503172516 | 16 | 325 | 4.8 | 11.3 | 0.00 | 0.00 | 0.00 | 36 | 1014.7 |
| 20260503171515 | 15 | 270 | 3.2 | 9.7 | 0.00 | 0.00 | 0.00 | 40 | 1014.7 |
| 20260503170515 | 15 | 297 | 3.2 | 9.7 | 0.00 | 0.00 | 0.00 | 36 | 1014.8 |
| 20260503150515 | 13 | 332 | 3.2 | 12.9 | 0.00 | 0.00 | 0.00 | 45 | 1015.4 |
| 20260503130535 | 11 | 321 | 4.8 | 17.7 | 0.00 | 0.00 | 0.00 | 50 | 1015.4 |
| 20260503110515 | 5 | 343 | 0.0 | 3.2 | 0.00 | 0.00 | 0.00 | 74 | 1014.2 |
| 20260503081516 | 6 | 268 | 0.0 | 1.6 | 0.00 | 0.00 | 0.00 | 77 | 1012.6 |
| 20260503080515 | 6 | 317 | 0.0 | 4.8 | 0.00 | 0.00 | 0.00 | 77 | 1012.6 |
| 20260503072535 | 6 | 346 | 1.6 | 9.7 | 0.00 | 0.00 | 0.00 | 75 | 1012.1 |
| 20260503071516 | 6 | 302 | 1.6 | 8.0 | 0.00 | 0.00 | 0.00 | 77 | 1012.0 |
| 20260503070515 | 6 | 12 | 0.0 | 4.8 | 0.00 | 0.00 | 0.00 | 78 | 1012.1 |
| 20260503054515 | 7 | 292 | 0.0 | 1.6 | 0.00 | 0.00 | 0.00 | 77 | 1012.1 |